Location: W�rzburg
(49.7529°N, 9.8822°E)
Time: 10:27:21
(UTC+01:00)

Envisat - Visible Passes

Search period start: 23 November 2017 00:00
Search period end: 03 December 2017 00:00
Orbit: 764 x 766 km, 98.2° (Epoch: 22 November)

Date Brightness Start Highest point End Pass type
(mag) Time Alt. Az. Time Alt. Az. Time Alt. Az.
23 Nov 4.9 19:01:51 16° N 19:01:51 16° N 19:03:00 10° N visible
23 Nov 5.8 20:42:03 11° NNW 20:42:03 11° NNW 20:42:13 10° NNW visible
24 Nov 5.0 18:24:47 13° NNE 18:24:47 13° NNE 18:25:33 10° NNE visible
24 Nov 5.4 20:04:59 14° NNW 20:04:59 14° NNW 20:05:42 10° NNW visible
25 Nov 5.1 19:27:55 15° N 19:27:55 15° N 19:28:51 10° N visible
26 Nov 5.0 18:50:50 14° NNE 18:50:50 14° NNE 18:51:43 10° N visible
26 Nov 5.8 20:31:03 11° NNW 20:31:03 11° NNW 20:31:12 10° NNW visible
27 Nov 5.1 18:13:45 11° NNE 18:13:45 11° NNE 18:14:05 10° NNE visible
27 Nov 5.4 19:53:58 13° NNW 19:53:58 13° NNW 19:54:34 10° NNW visible
28 Nov 5.1 19:16:53 14° N 19:16:53 14° N 19:17:38 10° N visible
29 Nov 5.1 18:39:47 13° NNE 18:39:47 13° NNE 18:40:24 10° N visible
29 Nov 5.7 20:20:00 11° NNW 20:20:00 11° NNW 20:20:08 10° NNW visible
30 Nov 5.4 19:42:55 13° N 19:42:55 13° N 19:43:25 10° N visible
01 Dec 5.2 19:05:48 13° N 19:05:48 13° N 19:06:24 10° N visible
02 Dec 5.1 18:28:43 11° NNE 18:28:43 11° NNE 18:29:01 10° NNE visible
02 Dec 5.6 20:08:55 11° NNW 20:08:55 11° NNW 20:09:03 10° NNW visible
